Location: Poughquag
(41.6090°N, 73.6820°W)
Time: 12:38:52
(UTC-04:00)

A-11 Canister half - Pass Details

Date: 06 June 2020
Orbit: 1527 x 1682 km, 47.3° (Epoch: 06 July)

Event Time Altitude Azimuth Distance (km) Brightness Sun altitude
Rises 14:38:47 0° 290° (WNW) 4,744 11.8 61.0°
Reaches altitude 10° 14:43:01 10° 274° (W) 3,782 11.6 60.4°
Maximum altitude 14:49:03 19° 234° (SW) 3,169 11.6 59.4°
Drops below altitude 10° 14:55:12 10° 195° (SSW) 3,851 11.6 58.4°
Sets 14:59:37 0° 178° (S) 4,861 11.8 57.6°
